Regional Weather Roundup
Issued by NWS

Home | Current Version | Previous Version | Text Only | Print | Product List | Glossary Off
Versions: 1 2 3 4 5 6 7 8 9 10 11 12 13 14 15 16 17 18 19 20 21 22 23 24 25 26 27 28 29 30 31 32 33 34 35 36 37 38 39 40 41 42 43 44 45 46 47 48 49 50

000
ASUS43 KLMK 111702
RWRKY
KENTUCKY REGIONAL WEATHER ROUNDUP
NATIONAL WEATHER SERVICE LOUISVILLE KY
1200 PM EST MON DEC 11 2017

NOTE "FAIR" INDICATES FEW OR NO CLOUDS BELOW 12,000 FEET
WITH NO SIGNIFICANT WEATHER AND/OR OBSTRUCTIONS TO VISIBILITY.

KYZ001>023-026-027-061>063-070>075-111800-
WESTERN AND SOUTH CENTRAL KENTUCKY

CITY           SKY/WX    TMP DP  RH WIND       PRES   REMARKS
PADUCAH        SUNNY     53  27  36 SW15G28   30.00F
HENDERSON      SUNNY     48  33  56 S15G21    29.98F
OWENSBORO      SUNNY     49  33  54 S13       30.00F
HOPKINSVILLE   SUNNY     53  28  37 S18       30.04F
BOWLING GREEN  CLOUDY    50  31  48 SW12G21   30.06F
GLASGOW        NOT AVBL
$$

KYZ024-025-028>034-038-045-046-053-111800-
NORTH CENTRAL KENTUCKY

CITY           SKY/WX    TMP DP  RH WIND       PRES   REMARKS
LOUISVILLE/SDF MOSUNNY   47  28  47 SW8       30.00F
LOUISVILLE/LOU CLOUDY    44  30  57 S6        30.02F
FORT KNOX      MOSUNNY   47  27  46 SW10      29.98F
$$

KYZ035>037-039>044-047>052-055>060-089>105-111800-
NORTHEAST KENTUCKY

CITY           SKY/WX    TMP DP  RH WIND       PRES   REMARKS
LEXINGTON      SUNNY     45  27  49 S16       30.00F
COVINGTON      PTSUNNY   37  27  67 SW13      29.99F WCI  29
FRANKFORT      MOSUNNY   45  25  45 SW12      29.99F
$$

KYZ054-064>069-076>088-106>120-111800-
SOUTHEAST KENTUCKY

CITY           SKY/WX    TMP DP  RH WIND       PRES   REMARKS
JACKSON        MOSUNNY   45  27  49 MISG      30.05F
LONDON         SUNNY     46  27  47 S8        30.04F
SOMERSET       NOT AVBL
MIDDLESBORO    SUNNY     46  28  50 S9        30.08F
MONTICELLO     SUNNY     49  30  48 VRB7G18   30.07F
$$




USA.gov is the U.S. government's official web portal to all federal, state and local government web resources and services.